1515510001.1,47069,10.81,74018.5,-5.45,-13.93,-14.79,0,*5B
1515510002.31,47070,10.81,74020.3,-5.43,-13.73,-14.61,0,*52
1515510003.52,47071,10.81,74020.0,-5.43,-13.73,-14.61,0,*53
1515510004.73,47072,10.81,74016.5,-5.43,-13.65,-14.61,0,*57
1515510005.97,47073,10.81,74012.5,-5.43,-13.87,-14.65,0,*5E
1515510007.23,47074,10.81,74014.0,-5.43,-13.79,-14.75,0,*59
1515510008.52,47075,10.81,74018.3,-5.45,-14.05,-14.97,0,*5E
1515510009.79,47076,10.81,74010.8,-5.43,-14.05,-14.93,0,*5F
1515510011.03,47077,10.81,74010.0,-5.43,-14.01,-14.89,0,*51
1515510012.3,47078,10.81,74008.8,-5.43,-14.01,-14.79,0,*51
1515510013.59,47079,10.81,74008.5,-5.41,-14.01,-14.93,0,*56
1515510014.88,47080,10.81,74010.5,-5.41,-14.05,-15.01,0,*5E
1515510016.13,47081,10.75,74000.0,-5.41,-14.19,-15.11,0,*53
1515510017.37,47082,10.81,74010.5,-5.43,-14.23,-15.21,0,*58
1515510018.61,47083,10.81,74012.5,-5.41,-14.23,-15.11,0,*58
1515510019.85,47084,10.75,74012.3,-5.43,-14.37,-15.35,0,*5E
1515510021.07,47085,10.81,74008.5,-5.43,-14.33,-15.25,0,*5A
1515510022.28,47086,10.75,74010.0,-5.43,-14.33,-15.25,0,*59
1515510023.52,47087,10.75,74010.8,-5.43,-14.33,-15.21,0,*5C
1515510024.74,47088,10.81,74010.5,-5.43,-14.33,-15.25,0,*57
1515510026.01,47089,10.81,74008.5,-5.45,-14.43,-15.29,0,*5B
1515510027.24,47090,10.81,74004.3,-5.43,-14.33,-15.21,0,*5A
1515510028.49,47091,10.81,74006.0,-5.45,-14.29,-15.25,0,*52
1515510029.76,47092,10.81,74010.8,-5.45,-14.37,-15.39,0,*53
1515510031.0,47093,10.81,74008.0,-5.43,-14.37,-15.35,0,*58
1515510032.27,47094,10.81,74002.3,-5.45,-14.43,-15.29,0,*57
1515510033.56,47095,10.75,73994.3,-5.45,-14.43,-15.39,0,*57
1515510034.86,47096,10.81,74000.3,-5.45,-14.43,-15.39,0,*54
1515510036.13,47097,10.75,73996.5,-5.45,-14.43,-15.29,0,*54
1515510037.4,47098,10.81,74000.8,-5.45,-14.43,-15.29,0,*5B
1515510038.64,47099,10.75,74000.8,-5.45,-14.29,-15.15,0,*59
1515510039.88,47100,10.81,74008.3,-5.45,-14.29,-15.15,0,*58
1515510041.13,47101,10.75,74004.8,-5.45,-14.23,-15.25,0,*50
1515510042.37,47102,10.81,74010.8,-5.45,-14.23,-15.15,0,*50
1515510043.61,47103,10.75,74002.0,-5.49,-14.23,-15.15,0,*5D
1515510044.86,47104,10.81,74004.8,-5.45,-14.11,-15.15,0,*57
1515510046.1,47105,10.81,74004.8,-5.45,-14.11,-15.07,0,*55
1515510047.34,47106,10.81,74000.5,-5.45,-14.11,-15.07,0,*56
1515510048.58,47107,10.81,74002.5,-5.49,-14.11,-15.11,0,*5C
1515510049.87,47108,10.81,74004.3,-5.45,-13.97,-14.93,0,*5D
1515510051.17,47109,10.75,74006.0,-5.45,-13.97,-14.93,0,*5C
1515510052.43,47110,10.81,74004.5,-5.45,-13.79,-14.69,0,*51
1515510053.69,47111,10.75,74012.8,-5.45,-13.55,-14.55,0,*51
1515510054.95,47112,10.81,74008.8,-5.45,-13.55,-14.55,0,*52
1515510056.21,47113,10.81,74004.5,-5.45,-13.55,-14.51,0,*57
1515510057.47,47114,10.75,74004.3,-5.45,-13.43,-14.43,0,*54
1515510058.7,47115,10.75,74006.5,-5.43,-13.37,-14.29,0,*5C
1515510059.96,47116,10.75,74014.8,-5.45,-13.37,-14.29,0,*59
1515510061.18,47117,10.75,74014.8,-5.43,-13.19,-14.19,0,*51
1515510062.41,47118,10.81,74012.5,-5.43,-13.29,-14.23,0,*54
1515510063.66,47119,10.81,74020.8,-5.43,-13.51,-14.47,0,*58
1515510064.86,47120,10.81,74018.8,-5.43,-13.65,-14.69,0,*59
1515510066.1,47121,10.81,74010.5,-5.43,-13.61,-14.65,0,*50
1515510067.31,47122,10.81,74018.0,-5.43,-13.65,-14.65,0,*57
1515510068.55,47123,10.75,74010.5,-5.43,-13.79,-14.89,0,*59
1515510069.78,47124,10.81,74004.0,-5.43,-13.61,-14.61,0,*51
1515510071.08,47125,10.81,74004.3,-5.45,-13.83,-14.93,0,*57
1515510072.37,47126,10.81,74002.0,-5.45,-13.83,-14.93,0,*54
1515510073.6,47127,10.75,74000.8,-5.43,-13.87,-14.89,0,*5C
1515510074.87,47128,10.81,74000.3,-5.45,-13.93,-14.97,0,*5F
1515510076.13,47129,10.81,74002.3,-5.43,-13.79,-14.93,0,*58
1515510077.4,47130,10.75,74002.0,-5.45,-13.97,-14.89,0,*5D
1515510078.63,47131,10.81,74006.8,-5.43,-13.93,-14.93,0,*55
1515510079.9,47132,10.75,74006.0,-5.43,-14.01,-14.93,0,*5A
1515510081.19,47133,10.81,74008.5,-5.45,-13.97,-14.93,0,*55
1515510082.43,47134,10.81,74014.5,-5.43,-13.87,-14.89,0,*5E
1515510083.67,47135,10.81,74018.8,-5.43,-13.87,-14.89,0,*5F
1515510084.93,47136,10.81,74020.0,-5.45,-13.93,-14.97,0,*50
1515510086.22,47137,10.81,74016.0,-5.45,-13.83,-14.83,0,*55
1515510087.48,47138,10.75,74022.5,-5.45,-13.93,-14.83,0,*5B
1515510088.74,47139,10.81,74018.5,-5.43,-13.79,-14.79,0,*5D
1515510090.04,47140,10.81,74024.5,-5.45,-13.83,-14.79,0,*50
1515510091.33,47141,10.81,74022.8,-5.45,-13.79,-14.79,0,*54
1515510092.59,47142,10.75,74020.3,-5.43,-13.79,-14.79,0,*51
1515510093.87,47143,10.81,74024.5,-5.41,-13.79,-14.75,0,*5E
1515510095.13,47144,10.81,74026.3,-5.45,-13.69,-14.79,0,*50
1515510096.43,47145,10.81,74016.3,-5.45,-13.83,-14.83,0,*50
1515510097.69,47146,10.75,74010.5,-5.45,-13.93,-14.83,0,*52
1515510098.95,47147,10.81,74008.5,-5.45,-13.93,-14.93,0,*52
1515510100.19,47148,10.81,74008.8,-5.43,-13.79,-14.89,0,*54
1515510101.48,47149,10.81,74010.8,-5.45,-13.83,-14.83,0,*5C
1515510102.74,47150,10.81,74010.3,-5.45,-13.93,-14.93,0,*54
1515510103.98,47151,10.75,74010.0,-5.43,-13.79,-14.89,0,*5C
1515510105.24,47152,10.81,74010.3,-5.45,-13.93,-14.93,0,*56
1515510106.5,47153,10.75,73998.5,-5.43,-13.79,-14.79,0,*51
1515510107.76,47154,10.81,74000.5,-5.43,-13.79,-14.79,0,*56
1515510109.05,47155,10.81,74004.0,-5.45,-13.83,-14.83,0,*51
1515510110.29,47156,10.81,73994.5,-5.43,-13.73,-14.75,0,*52
1515510111.57,47157,10.81,73990.0,-5.45,-13.79,-14.79,0,*53
1515510112.78,47158,10.81,73994.3,-5.43,-13.65,-14.65,0,*5A
1515510114.0,47159,10.81,73988.3,-5.43,-13.51,-14.61,0,*58
1515510115.24,47160,10.75,73980.8,-5.43,-13.61,-14.61,0,*51
1515510116.48,47161,10.81,73986.8,-5.45,-13.55,-14.65,0,*55
1515510117.74,47162,10.81,73994.0,-5.43,-13.37,-14.47,0,*54
1515510118.97,47163,10.75,73972.0,-5.43,-13.47,-14.51,0,*55
1515510120.24,47164,10.75,73984.5,-5.45,-13.51,-14.51,0,*53
1515510121.47,47165,10.75,73990.0,-5.43,-13.37,-14.37,0,*54
1515510122.71,47166,10.75,73988.0,-5.43,-13.37,-14.37,0,*57
1515510123.94,47167,10.81,73990.0,-5.43,-13.29,-14.33,0,*5D
1515510125.18,47168,10.81,73988.0,-5.43,-13.33,-14.37,0,*5D
1515510126.41,47169,10.75,73990.0,-5.43,-13.33,-14.33,0,*58
1515510127.67,47170,10.81,73996.8,-5.45,-13.37,-14.37,0,*56
1515510128.9,47171,10.75,73998.8,-5.43,-13.33,-14.33,0,*51
1515510130.14,47172,10.81,73996.8,-5.43,-13.29,-14.15,0,*5D
1515510131.37,47173,10.75,73998.5,-5.41,-13.15,-14.15,0,*51
1515510132.63,47174,10.81,74000.0,-5.41,-13.15,-14.05,0,*57
1515510133.86,47175,10.81,74006.3,-5.41,-13.15,-14.15,0,*57
1515510135.09,47176,10.81,74006.5,-5.41,-13.15,-14.15,0,*54
1515510136.35,47177,10.81,74006.5,-5.39,-13.01,-14.01,0,*5A
1515510137.61,47178,10.81,74006.8,-5.41,-13.01,-14.11,0,*5B
1515510138.81,47179,10.81,74010.3,-5.39,-13.15,-14.11,0,*50
1515510140.03,47180,10.81,74014.5,-5.39,-13.29,-14.11,0,*59
1515510141.24,47181,10.75,74018.8,-5.39,-13.23,-14.15,0,*56
1515510142.45,47182,10.81,74014.3,-5.39,-13.23,-14.15,0,*55
1515510143.68,47183,10.75,74004.8,-5.39,-12.97,-13.87,0,*56
1515510144.9,47184,10.81,74006.0,-5.35,-12.83,-13.93,0,*5D
1515510146.14,47185,10.81,74006.5,-5.35,-12.97,-13.97,0,*5D
1515510147.37,47186,10.81,74006.8,-5.33,-13.19,-14.15,0,*52
1515510148.6,47187,10.81,74002.8,-5.35,-13.11,-14.05,0,*5C
1515510149.85,47188,10.81,74006.8,-5.33,-13.29,-14.29,0,*50
1515510151.09,47189,10.75,74010.3,-5.35,-13.51,-14.43,0,*54
1515510152.32,47190,10.81,74010.0,-5.35,-13.51,-14.43,0,*5C
1515510153.56,47191,10.75,74014.0,-5.35,-13.51,-14.51,0,*5E
1515510154.79,47192,10.75,74012.0,-5.35,-13.51,-14.43,0,*5E
1515510156.02,47193,10.81,74018.0,-5.35,-13.51,-14.43,0,*5F
1515510157.25,47194,10.75,74020.0,-5.35,-13.51,-14.43,0,*58
1515510158.48,47195,10.81,74022.8,-5.35,-13.51,-14.43,0,*59
1515510159.71,47196,10.81,74024.0,-5.35,-13.51,-14.43,0,*5A
1515510160.94,47197,10.75,74016.3,-5.35,-13.51,-14.43,0,*5B
1515510162.17,47198,10.81,74018.5,-5.35,-13.43,-14.43,0,*57
1515510163.4,47199,10.75,74022.8,-5.35,-13.51,-14.43,0,*55
1515510164.64,47200,10.81,74036.5,-5.35,-13.51,-14.51,0,*55
1515510165.88,47201,10.81,74036.0,-5.35,-13.51,-14.55,0,*50
1515510167.11,47202,10.75,74026.5,-5.35,-13.51,-14.51,0,*57
1515510168.35,47203,10.81,74012.8,-5.35,-13.51,-14.55,0,*52
1515510169.62,47204,10.81,74016.0,-5.33,-13.51,-14.51,0,*57
1515510170.85,47205,10.75,74042.8,-5.35,-13.51,-14.51,0,*50
1515510172.09,47206,10.75,74022.8,-5.35,-13.51,-14.51,0,*53
1515510173.3,47207,10.81,74030.3,-5.35,-13.43,-14.37,0,*51
1515510174.53,47208,10.75,74024.8,-5.35,-13.51,-14.43,0,*5E
1515510175.75,47209,10.81,74014.5,-5.39,-13.55,-14.43,0,*57
1515510177.01,47210,10.75,74024.3,-5.39,-13.61,-14.47,0,*5C
1515510178.27,47211,10.81,74018.8,-5.39,-13.61,-14.55,0,*5E
1515510179.53,47212,10.81,74012.8,-5.39,-13.61,-14.55,0,*5D
1515510180.79,47213,10.75,74014.3,-5.39,-13.61,-14.55,0,*5C
1515510182.02,47214,10.81,74016.3,-5.41,-13.65,-14.61,0,*57
1515510183.26,47215,10.81,74016.5,-5.39,-13.69,-14.55,0,*52
1515510184.49,47216,10.81,74014.8,-5.39,-13.69,-14.55,0,*51
1515510185.72,47217,10.81,74018.5,-5.39,-13.61,-14.61,0,*5F
1515510186.98,47218,10.81,74018.8,-5.39,-13.61,-14.55,0,*57
1515510188.21,47219,10.81,74012.8,-5.41,-13.65,-14.61,0,*5A
1515510189.45,47220,10.75,74010.3,-5.41,-13.73,-14.61,0,*57
1515510190.69,47221,10.81,74014.8,-5.41,-13.65,-14.65,0,*55
1515510191.92,47222,10.75,74010.8,-5.39,-13.69,-14.55,0,*56
1515510193.16,47223,10.81,74014.5,-5.41,-13.65,-14.61,0,*53
1515510194.39,47224,10.81,74016.3,-5.39,-13.61,-14.61,0,*5F
1515510195.63,47225,10.75,74010.0,-5.41,-13.73,-14.65,0,*56
1515510196.87,47226,10.81,74006.8,-5.41,-13.73,-14.65,0,*55
1515510198.13,47227,10.81,73998.8,-5.41,-13.65,-14.55,0,*50
1515510199.36,47228,10.75,73988.3,-5.41,-13.65,-14.61,0,*58
1515510200.6,47229,10.75,73980.8,-5.41,-13.73,-14.61,0,*5E
1515510201.86,47230,10.81,73980.0,-5.41,-13.65,-14.51,0,*52
1515510203.15,47231,10.75,73988.8,-5.41,-13.61,-14.51,0,*57
1515510204.44,47232,10.81,73994.5,-5.41,-13.61,-14.51,0,*54
1515510205.73,47233,10.75,73994.3,-5.41,-13.61,-14.47,0,*52
1515510207.02,47234,10.81,73992.5,-5.41,-13.61,-14.51,0,*52
1515510208.31,47235,10.81,73994.5,-5.41,-13.61,-14.51,0,*53
1515510209.57,47236,10.81,73992.8,-5.43,-13.61,-14.47,0,*55
1515510210.83,47237,10.75,73994.3,-5.43,-13.61,-14.51,0,*53
1515510212.09,47238,10.75,73980.5,-5.43,-13.61,-14.51,0,*5C
1515510213.36,47239,10.75,73986.8,-5.43,-13.61,-14.47,0,*5A
1515510214.62,47240,10.75,73992.0,-5.45,-13.55,-14.55,0,*56
1515510215.88,47241,10.81,73974.3,-5.43,-13.61,-14.47,0,*55
1515510217.15,47242,10.81,73976.5,-5.43,-13.61,-14.47,0,*56
1515510218.39,47243,10.75,73988.5,-5.43,-13.51,-14.47,0,*54
1515510219.64,47244,10.81,73990.8,-5.43,-13.51,-14.51,0,*54
1515510220.9,47245,10.81,73990.3,-5.43,-13.61,-14.47,0,*51
1515510222.16,47246,10.75,73982.5,-5.45,-13.65,-14.55,0,*53
1515510223.42,47247,10.81,73984.5,-5.43,-13.61,-14.47,0,*53
1515510224.69,47248,10.81,73982.5,-5.45,-13.65,-14.51,0,*59
1515510225.95,47249,10.75,73976.8,-5.45,-13.55,-14.51,0,*5B
1515510227.18,47250,10.75,73988.8,-5.45,-13.55,-14.37,0,*53
1515510228.42,47251,10.75,73990.0,-5.45,-13.55,-14.37,0,*52
1515510229.68,47252,10.81,73988.8,-5.45,-13.55,-14.43,0,*52
1515510230.91,47253,10.75,73988.3,-5.45,-13.43,-14.29,0,*58
1515510232.15,47254,10.75,73984.0,-5.45,-13.43,-14.23,0,*55
1515510233.38,47255,10.81,73972.8,-5.43,-13.33,-14.19,0,*5C
1515510234.64,47256,10.75,73972.8,-5.45,-13.33,-14.19,0,*59
1515510235.88,47257,10.81,73980.5,-5.43,-13.07,-14.01,0,*50
1515510237.14,47258,10.75,73988.5,-5.45,-13.11,-13.97,0,*56
1515510238.37,47259,10.75,73990.5,-5.45,-13.07,-13.93,0,*54
1515510239.64,47260,10.81,73996.8,-5.45,-13.19,-13.97,0,*55
1515510240.87,47261,10.75,73996.5,-5.43,-13.15,-14.01,0,*56
1515510242.07,47262,10.81,74010.0,-5.43,-13.15,-13.93,0,*59
1515510243.33,47263,10.81,74006.0,-5.45,-13.19,-13.97,0,*56
1515510244.56,47264,10.75,74018.3,-5.43,-13.07,-13.87,0,*59
1515510245.79,47265,10.75,74018.5,-5.43,-13.07,-13.87,0,*58
1515510247.05,47266,10.81,74018.8,-5.43,-13.01,-13.87,0,*5D
1515510248.27,47267,10.81,74012.3,-5.43,-13.15,-13.87,0,*59
1515510249.47,47268,10.81,74012.8,-5.43,-13.15,-13.93,0,*53
1515510250.73,47269,10.81,74010.8,-5.45,-13.23,-14.05,0,*59
1515510251.96,47270,10.81,74010.0,-5.43,-13.15,-13.87,0,*5F
1515510253.22,47271,10.75,74008.0,-5.45,-13.23,-13.97,0,*5C
1515510254.49,47272,10.81,74012.0,-5.45,-13.19,-13.97,0,*56
1515510255.72,47273,10.81,74010.8,-5.43,-13.15,-13.87,0,*5C
1515510256.94,47274,10.75,74004.5,-5.43,-13.07,-13.79,0,*59
1515510258.17,47275,10.75,74010.3,-5.43,-13.07,-13.87,0,*59
1515510259.42,47276,10.81,74012.8,-5.43,-13.01,-13.79,0,*5D
1515510260.68,47277,10.75,74008.3,-5.41,-12.93,-13.79,0,*54
1515510261.88,47278,10.81,74010.0,-5.43,-12.89,-13.65,0,*5F
1515510263.09,47279,10.75,74008.5,-5.43,-12.89,-13.73,0,*59
1515510264.32,47280,10.75,74010.3,-5.43,-12.79,-13.51,0,*50
1515510265.55,47281,10.75,74008.8,-5.41,-12.89,-13.55,0,*58
1515510266.8,47282,10.81,74012.8,-5.41,-13.07,-13.79,0,*52
1515510268.09,47283,10.75,74012.0,-5.41,-13.01,-13.87,0,*54
1515510269.34,47284,10.81,74014.3,-5.41,-13.07,-13.87,0,*55
1515510270.59,47285,10.75,74018.3,-5.41,-13.15,-13.79,0,*56
1515510271.82,47286,10.75,74016.3,-5.39,-13.01,-13.69,0,*5E
1515510273.05,47287,10.75,74012.8,-5.41,-12.89,-13.65,0,*5D
1515510274.28,47288,10.81,74016.0,-5.41,-12.93,-13.65,0,*59
1515510275.54,47289,10.81,74022.3,-5.41,-12.79,-13.65,0,*5C
1515510276.77,47290,10.75,74018.3,-5.41,-12.93,-13.73,0,*57
1515510278.01,47291,10.81,74024.5,-5.41,-12.93,-13.65,0,*51
1515510279.26,47292,10.75,74022.0,-5.41,-12.79,-13.47,0,*56
1515510280.51,47293,10.75,74022.8,-5.41,-12.79,-13.47,0,*57
1515510281.75,47294,10.81,74032.8,-5.39,-12.75,-13.55,0,*50
1515510282.98,47295,10.81,74030.0,-5.39,-12.89,-13.61,0,*55
1515510284.23,47296,10.75,74022.0,-5.39,-12.83,-13.61,0,*5C
1515510285.43,47297,10.75,74022.5,-5.39,-12.89,-13.69,0,*5F
1515510286.63,47298,10.81,74030.8,-5.35,-12.93,-13.65,0,*5B
1515510287.84,47299,10.75,74034.5,-5.35,-12.97,-13.55,0,*5D
1515510289.07,47300,10.81,74044.5,-5.35,-12.79,-13.55,0,*5C
1515510290.27,47301,10.81,74042.3,-5.35,-12.93,-13.65,0,*5A
1515510291.48,47302,10.81,74046.3,-5.35,-12.93,-13.65,0,*59
1515510292.68,47303,10.81,74048.8,-5.35,-12.97,-13.65,0,*5C
1515510293.88,47304,10.75,74036.5,-5.35,-12.97,-13.65,0,*5B
1515510295.08,47305,10.81,74036.8,-5.35,-13.11,-13.69,0,*59
1515510296.29,47306,10.81,74034.3,-5.35,-12.97,-13.65,0,*59
1515510297.51,47307,10.75,74024.0,-5.35,-12.79,-13.43,0,*5C
1515510298.74,47308,10.75,74024.0,-5.33,-12.93,-13.55,0,*56
1515510299.97,47309,10.81,74024.5,-5.33,-12.93,-13.51,0,*53
1515510301.18,47310,10.75,74030.3,-5.35,-12.97,-13.65,0,*5E
1515510302.4,47311,10.81,74028.8,-5.33,-13.23,-13.69,0,*5B
1515510303.65,47312,10.81,74032.0,-5.33,-13.19,-13.79,0,*50
1515510304.9,47313,10.81,74038.0,-5.33,-13.19,-13.79,0,*51
1515510306.14,47314,10.81,74026.8,-5.33,-13.51,-14.23,0,*52
1515510307.35,47315,10.75,74024.5,-5.35,-13.55,-14.29,0,*5B
1515510308.55,47316,10.81,74020.0,-5.35,-13.55,-14.23,0,*52
1515510309.76,47317,10.81,74014.8,-5.35,-13.55,-14.23,0,*53
1515510310.96,47318,10.81,74006.5,-5.35,-13.65,-14.29,0,*55
1515510312.17,47319,10.75,73998.8,-5.35,-13.65,-14.29,0,*54
1515510313.37,47320,10.81,73998.5,-5.39,-13.69,-14.33,0,*55
1515510314.6,47321,10.81,74004.0,-5.39,-13.61,-14.29,0,*57
1515510315.81,47322,10.81,74016.0,-5.39,-13.55,-14.15,0,*5C
1515510317.02,47323,10.81,74018.8,-5.39,-13.55,-14.15,0,*5D
1515510318.28,47324,10.81,74020.3,-5.39,-13.33,-13.97,0,*57
1515510319.54,47325,10.75,74024.0,-5.39,-13.33,-13.97,0,*56
1515510320.8,47326,10.81,74030.8,-5.41,-13.47,-14.01,0,*51
1515510322.06,47327,10.81,74034.3,-5.39,-13.33,-13.97,0,*54
1515510323.26,47328,10.81,74038.3,-5.39,-13.23,-13.73,0,*50
1515510324.47,47329,10.81,74034.5,-5.39,-13.23,-13.73,0,*51
1515510325.7,47330,10.81,74030.8,-5.39,-13.23,-13.83,0,*56
1515510326.89,47331,10.75,74032.3,-5.39,-13.15,-13.73,0,*5D
1515510328.09,47332,10.81,74040.3,-5.39,-13.15,-13.73,0,*5E
1515510329.29,47333,10.81,74044.3,-5.39,-13.15,-13.73,0,*5F
1515510330.55,47334,10.81,74042.8,-5.41,-13.19,-13.79,0,*51
1515510331.77,47335,10.81,74026.0,-5.39,-13.29,-13.73,0,*56
1515510333.03,47336,10.81,74014.5,-5.39,-13.33,-13.97,0,*54
1515510334.23,47337,10.75,74018.5,-5.39,-13.15,-13.73,0,*5B
1515510335.43,47338,10.81,74028.8,-5.39,-13.11,-13.73,0,*50
1515510336.63,47339,10.81,74028.0,-5.39,-13.15,-13.73,0,*55
1515510337.86,47340,10.81,74046.0,-5.39,-13.11,-13.61,0,*5C
1515510339.06,47341,10.81,74036.5,-5.39,-13.11,-13.69,0,*55
1515510340.29,47342,10.81,74040.5,-5.39,-13.11,-13.61,0,*5E
1515510341.49,47343,10.81,74034.0,-5.39,-13.11,-13.69,0,*57
1515510342.69,47344,10.81,74036.3,-5.35,-13.07,-13.55,0,*54
1515510343.89,47345,10.81,74038.3,-5.39,-13.11,-13.69,0,*51
1515510345.12,47346,10.81,74034.8,-5.39,-13.11,-13.61,0,*5A
1515510346.32,47347,10.75,74032.0,-5.39,-13.15,-13.69,0,*57
1515510347.52,47348,10.81,74034.8,-5.39,-13.11,-13.69,0,*5C
1515510348.75,47349,10.81,74028.3,-5.39,-13.15,-13.61,0,*51
1515510349.94,47350,10.75,74028.8,-5.39,-13.15,-13.69,0,*51
1515510351.14,47351,10.81,74024.8,-5.39,-13.15,-13.69,0,*50
1515510352.33,47352,10.81,74014.5,-5.39,-13.15,-13.69,0,*53
1515510353.54,47353,10.81,74010.8,-5.39,-13.23,-13.69,0,*57
1515510354.76,47354,10.81,74004.3,-5.41,-13.15,-13.65,0,*56
1515510355.96,47355,10.75,74000.5,-5.39,-13.15,-13.69,0,*54
1515510357.16,47356,10.81,74002.0,-5.39,-13.15,-13.69,0,*57
1515510358.35,47357,10.81,74006.3,-5.39,-13.15,-13.69,0,*56
1515510359.58,47358,10.81,74004.0,-5.39,-13.29,-13.73,0,*5D
1515510360.78,47359,10.81,74000.0,-5.39,-13.43,-13.73,0,*50
1515510362.02,47360,10.75,74002.0,-5.39,-13.43,-13.97,0,*50
1515510363.25,47361,10.81,74012.8,-5.39,-13.47,-13.97,0,*55
1515510364.5,47362,10.81,74006.3,-5.39,-13.33,-13.87,0,*54
1515510365.75,47363,10.81,73996.5,-5.39,-13.33,-13.87,0,*55
1515510367.0,47364,10.81,73998.0,-5.41,-13.43,-13.87,0,*5A
1515510368.26,47365,10.75,73994.5,-5.41,-13.47,-13.87,0,*5F
1515510369.54,47366,10.81,74000.5,-5.41,-13.37,-13.79,0,*5A
1515510370.79,47367,10.81,73998.5,-5.41,-13.47,-13.87,0,*5D
1515510372.07,47368,10.81,73994.8,-5.41,-13.37,-13.87,0,*55
1515510373.35,47369,10.81,73994.3,-5.41,-13.29,-13.83,0,*5F
1515510374.61,47370,10.81,73990.8,-5.41,-13.47,-13.87,0,*5B
1515510375.86,47371,10.81,73992.5,-5.41,-13.47,-13.87,0,*5A
1515510377.08,47372,10.81,73992.0,-5.41,-13.47,-13.93,0,*5C
1515510378.37,47373,10.81,73992.3,-5.41,-13.37,-14.01,0,*56
1515510379.6,47374,10.81,73986.5,-5.39,-13.43,-13.87,0,*54
1515510380.83,47375,10.75,73978.8,-5.41,-13.47,-13.93,0,*5B
1515510382.08,47376,10.81,73998.3,-5.41,-13.37,-13.93,0,*5F
1515510383.31,47377,10.75,73990.0,-5.41,-13.47,-13.93,0,*59
1515510384.59,47378,10.75,73994.0,-5.41,-13.37,-13.87,0,*54
1515510385.86,47379,10.81,73996.5,-5.41,-13.51,-14.01,0,*5C
1515510387.13,47380,10.81,73988.3,-5.41,-13.51,-14.01,0,*5A
1515510388.37,47381,10.81,74000.3,-5.43,-13.55,-13.97,0,*55
1515510389.63,47382,10.81,74000.0,-5.43,-13.61,-14.01,0,*59
1515510390.86,47383,10.81,74000.5,-5.43,-13.47,-14.01,0,*5C
1515510392.1,47384,10.75,74002.0,-5.43,-13.51,-14.05,0,*58
1515510393.35,47385,10.81,74002.3,-5.43,-13.51,-14.01,0,*5D
1515510394.55,47386,10.81,74004.3,-5.43,-13.47,-13.93,0,*55
1515510395.75,47387,10.81,74002.5,-5.43,-13.51,-13.93,0,*53
1515510396.95,47388,10.81,74002.3,-5.43,-13.47,-13.93,0,*5B
1515510398.18,47389,10.75,73996.5,-5.43,-13.47,-13.87,0,*5F
1515510399.44,47390,10.81,74004.5,-5.43,-13.37,-13.87,0,*50
1515510400.72,47391,10.75,74002.0,-5.45,-13.37,-13.83,0,*53
1515510402.0,47392,10.81,74000.8,-5.45,-13.37,-13.83,0,*50
1515510403.26,47393,10.81,74002.8,-5.45,-13.37,-13.93,0,*50
1515510404.51,47394,10.81,74002.3,-5.43,-13.33,-13.79,0,*51
1515510405.79,47395,10.75,74002.0,-5.45,-13.37,-13.83,0,*57
1515510407.08,47396,10.81,74000.8,-5.45,-13.37,-13.97,0,*51
1515510408.33,47397,10.81,74004.3,-5.43,-13.33,-13.79,0,*52
1515510409.61,47398,10.81,74000.0,-5.45,-13.37,-13.87,0,*5E
1515510410.87,47399,10.81,74000.3,-5.45,-13.43,-13.83,0,*58
1515510412.13,47400,10.81,73992.5,-5.45,-13.51,-13.83,0,*5C
1515510413.4,47401,10.81,73984.0,-5.45,-13.51,-13.83,0,*5D
1515510414.65,47402,10.75,73976.5,-5.45,-13.37,-13.93,0,*5F
1515510415.91,47403,10.81,73992.8,-5.45,-13.37,-13.93,0,*5E
1515510417.19,47404,10.81,73994.5,-5.45,-13.33,-13.83,0,*5C
1515510418.48,47405,10.81,73998.5,-5.45,-13.37,-13.97,0,*5C
1515510419.74,47406,10.75,73988.0,-5.45,-13.51,-13.83,0,*5A
1515510421.0,47407,10.81,73988.5,-5.45,-13.37,-13.93,0,*5A
1515510422.23,47408,10.81,73986.3,-5.45,-13.43,-13.93,0,*56
1515510423.49,47409,10.81,73984.8,-5.45,-13.43,-13.83,0,*56
1515510424.74,47410,10.81,73984.0,-5.45,-13.37,-13.93,0,*5C
1515510426.0,47411,10.81,73982.8,-5.45,-13.43,-13.83,0,*5F
1515510427.23,47412,10.81,73972.0,-5.45,-13.43,-13.93,0,*5D
1515510428.51,47413,10.81,73974.8,-5.45,-13.37,-13.83,0,*5E
1515510429.8,47414,10.81,73978.5,-5.45,-13.37,-13.83,0,*59
1515510431.08,47415,10.81,73972.5,-5.45,-13.37,-13.83,0,*58
1515510432.35,47416,10.81,73980.3,-5.45,-13.33,-13.79,0,*5A
1515510433.61,47417,10.81,73988.5,-5.45,-13.23,-13.79,0,*5A
1515510434.85,47418,10.81,73982.5,-5.45,-13.19,-13.65,0,*51
1515510436.08,47419,10.81,73986.8,-5.45,-13.11,-13.65,0,*58
1515510437.31,47420,10.81,73992.5,-5.45,-13.23,-13.65,0,*53
1515510438.55,47421,10.81,73984.3,-5.45,-13.23,-13.55,0,*51
1515510439.79,47422,10.81,73988.3,-5.45,-13.11,-13.55,0,*53
1515510441.02,47423,10.81,73986.5,-5.45,-13.11,-13.51,0,*56
1515510442.26,47424,10.81,73990.5,-5.45,-12.97,-13.51,0,*5E
1515510443.49,47425,10.81,73994.0,-5.45,-13.11,-13.51,0,*50
1515510444.73,47426,10.81,73988.5,-5.45,-13.23,-13.65,0,*55
1515510445.97,47427,10.81,73992.8,-5.45,-13.19,-13.65,0,*5D
1515510447.2,47428,10.81,73994.5,-5.45,-13.23,-13.65,0,*5B
1515510448.44,47429,10.81,73992.0,-5.45,-13.11,-13.55,0,*58
1515510449.67,47430,10.81,73994.0,-5.45,-13.11,-13.65,0,*53
1515510450.9,47431,10.81,73994.0,-5.45,-13.23,-13.65,0,*53
1515510452.14,47432,10.75,73994.3,-5.45,-13.23,-13.65,0,*50
1515510453.37,47433,10.81,73994.0,-5.49,-13.15,-13.55,0,*5B
1515510454.61,47434,10.81,73992.3,-5.45,-13.19,-13.55,0,*5C
1515510455.84,47435,10.81,73996.3,-5.45,-13.19,-13.55,0,*5D
1515510457.08,47436,10.81,73996.0,-5.45,-13.07,-13.51,0,*55
1515510458.31,47437,10.81,73996.5,-5.45,-13.11,-13.55,0,*57
1515510459.57,47438,10.81,73996.3,-5.49,-13.11,-13.61,0,*53
1515510460.81,47439,10.81,73990.8,-5.45,-13.07,-13.51,0,*5A
1515510462.04,47440,10.81,73988.8,-5.45,-13.07,-13.43,0,*57
1515510463.27,47441,10.81,73994.3,-5.45,-13.11,-13.51,0,*52
1515510464.51,47442,10.81,73992.8,-5.45,-13.07,-13.51,0,*56
1515510465.74,47443,10.81,73994.0,-5.45,-13.11,-13.43,0,*53
1515510466.97,47444,10.81,73998.8,-5.45,-12.93,-13.51,0,*5C
1515510468.21,47445,10.75,73986.8,-5.45,-13.11,-13.51,0,*56
1515510469.44,47446,10.81,73990.5,-5.45,-13.11,-13.43,0,*56
1515510470.67,47447,10.81,73990.3,-5.45,-13.07,-13.43,0,*50
1515510471.89,47448,10.81,73988.8,-5.49,-13.15,-13.43,0,*50
1515510473.13,47449,10.81,73982.0,-5.45,-12.97,-13.43,0,*56
1515510474.35,47450,10.81,73986.5,-5.49,-13.11,-13.47,0,*59
1515510475.58,47451,10.81,73982.3,-5.49,-13.11,-13.43,0,*5C
1515510476.84,47452,10.81,73986.5,-5.45,-12.97,-13.33,0,*5B
1515510478.11,47453,10.81,73982.8,-5.45,-12.93,-13.33,0,*5E
1515510479.37,47454,10.81,73976.3,-5.45,-12.93,-13.33,0,*59
1515510480.63,47455,10.81,73984.5,-5.49,-12.89,-13.29,0,*54
1515510481.88,47456,10.81,73982.8,-5.49,-12.97,-13.37,0,*57
1515510483.14,47457,10.81,73986.3,-5.49,-12.97,-13.29,0,*59
1515510484.4,47458,10.81,73984.8,-5.49,-13.01,-13.23,0,*52
1515510485.66,47459,10.81,73980.3,-5.49,-12.97,-13.29,0,*57
1515510486.91,47460,10.81,73986.0,-5.49,-12.97,-13.37,0,*52
1515510488.2,47461,10.81,73994.0,-5.49,-13.01,-13.29,0,*52
1515510489.44,47462,10.81,73988.3,-5.45,-12.93,-13.19,0,*54
1515510490.7,47463,10.81,73968.8,-5.45,-12.79,-13.07,0,*5E
1515510491.96,47464,10.81,73994.0,-5.45,-12.71,-12.97,0,*59
1515510493.22,47465,10.81,74000.5,-5.45,-12.83,-13.19,0,*52
1515510494.49,47466,10.81,74012.8,-5.45,-12.83,-13.19,0,*51
1515510495.74,47467,10.81,74002.3,-5.45,-12.83,-13.23,0,*59
1515510496.98,47468,10.81,73996.0,-5.49,-12.97,-13.23,0,*5F